This is the latest recevied weather packets stored in our database for station/object WD0REW. If no packets are shown the sender has not sent any weather packets the latest 10 day(s).
| Time | Temp. | Humidity | Pressure | Rain* | Wind** | Luminosity | Snow |
|---|---|---|---|---|---|---|---|
| 1777975167 | 15.56° C | 92% | 1006.6 hPa | 0 mm | - | 0 W/m² | - |
| 1777974864 | 15.56° C | 91% | 1006.2 hPa | 0 mm | - | 0 W/m² | - |
| 1777974560 | 15.56° C | 91% | 1006.4 hPa | 0 mm | - | 0 W/m² | - |
| 1777974257 | 15.56° C | 90% | 1005.7 hPa | 0 mm | - | 0 W/m² | - |
| 1777973953 | 15.56° C | 89% | 1005.5 hPa | 0 mm | - | 0 W/m² | - |
| 1777973650 | 15.56° C | 88% | 1005.7 hPa | 0 mm | - | 0 W/m² | - |
| 1777973348 | 15.56° C | 88% | 1005.9 hPa | 0 mm | - | 0 W/m² | - |
| 1777973046 | 15.56° C | 88% | 1005.8 hPa | 0 mm | - | 0 W/m² | - |
| 1777972743 | 15.56° C | 89% | 1005.6 hPa | 0 mm | - | 0 W/m² | - |
| 1777972440 | 15.56° C | 90% | 1005.4 hPa | 0 mm | - | 0 W/m² | - |
| 1777972138 | 15.56° C | 89% | 1004.6 hPa | 0 mm | - | 0 W/m² | - |
| 1777971836 | 16.11° C | 88% | 1004.5 hPa | 1.27 mm | - | 0 W/m² | - |
| 1777971533 | 16.11° C | 87% | 1004.4 hPa | 1.27 mm | - | 0 W/m² | - |
| 1777971231 | 16.11° C | 88% | 1004.7 hPa | 0 mm | - | 0 W/m² | - |
| 1777970929 | 16.11° C | 88% | 1004.7 hPa | 1.78 mm | - | 0 W/m² | - |
| 1777970627 | 16.67° C | 87% | 1005.4 hPa | 1.27 mm | - | 0 W/m² | - |
| 1777970324 | 16.67° C | 86% | 1006.4 hPa | 1.78 mm | - | 0 W/m² | - |
| 1777970021 | 16.67° C | 86% | 1006.6 hPa | 3.56 mm | - | 0 W/m² | - |
| 1777969718 | 16.67° C | 85% | 1006.5 hPa | 1.78 mm | - | 0 W/m² | - |
| 1777969414 | 16.67° C | 84% | 1007.1 hPa | 0 mm | - | 0 W/m² | - |
| 1777969111 | 17.22° C | 83% | 1006.6 hPa | 0 mm | - | 0 W/m² | - |
| 1777968807 | 17.22° C | 81% | 1006.9 hPa | 0 mm | - | 0 W/m² | - |
| 1777968504 | 17.22° C | 80% | 1006.8 hPa | 0 mm | - | 0 W/m² | - |
| 1777968200 | 17.78° C | 79% | 1006.2 hPa | 0 mm | - | 0 W/m² | - |
| 1777967896 | 17.78° C | 76% | 1006.4 hPa | 0 mm | - | 0 W/m² | - |
* Rain latest hour (hover to see other rain measurements)
** Current wind speed in m/s (hover to see current wind gust speed)